Providence, RI

7:27 PM EDT on July 23, 2017 (GMT -0400)
Green State

Weather History for KPVD - March, 2012

Change the Weather History Date:

Friday, March 16, 2012

  Actual Average Record
Temperature  
Mean Temperature 40 °F 39 °F  
Max Temperature 44 °F 48 °F 72 °F (1935)
Min Temperature 35 °F 30 °F 13 °F (1932)
Degree Days  
Heating Degree Days 25 26  
Month to date heating degree days 361 454  
Since 1 July heating degree days 3776 4516  
Cooling Degree Days 0 0  
Month to date cooling degree days 0 0  
Year to date cooling degree days 0 0  
Moisture  
Dew Point 36 °F    
Average Humidity 83    
Maximum Humidity 89    
Minimum Humidity 76    
Precipitation  
Precipitation T in 0.17 in 1.28 in (1974)
Month to date precipitation 0.88 2.40  
Year to date precipitation 5.77 9.55  
Snow  
Snow 0.00 in 0.20 in 8.70 in (1978)
Month to date snowfall 0.2 3.7  
Since 1 July snowfall 17.8 31.4  
Snow Depth 0.00 in    
Sea Level Pressure  
Sea Level Pressure 30.20 in    
Wind  
Wind Speed 5 mph (SE)    
Max Wind Speed 10 mph    
Max Gust Speed 13 mph    
Visibility 10 miles    
Events Rain    
T = Trace of Precipitation, MM = Missing Value Source: NWS Daily Summary

Daily Weather History Graph

Daily Weather History Graph

Search for Another Location

Airport or City:

Trip Planner

Search our weather history database for the weather conditions in past years. The results will help you decide how hot, cold, wet, or windy it might be!

Date:

Astronomy

Mar. 16, 2012 Rise Set
Actual Time 6:55 AM EDT 6:53 PM EDT
Civil Twilight 6:27 AM EDT 7:21 PM EDT
Nautical Twilight 5:55 AM EDT 7:54 PM EDT
Astronomical Twilight 5:22 AM EDT 8:26 PM EDT
Moon 3:15 AM EDT (3/16) 1:06 PM EDT (3/16)
Length of Visible Light 12h 54m
Length of Day
11h 58m
Waning Crescent, 33% of the Moon is Illuminated
Mar 16
Waning Crescent
Mar 22
New
Mar 30
First Quarter
Apr 6
Full
Apr 13
Last Quarter

Hourly Weather History & Observations

Time (EDT) Temp. Windchill Dew Point Humidity Pressure Visibility Wind Dir Wind Speed Gust Speed Precip Events Conditions
12:51 AM 37.0 °F 34.5 °F 30.9 °F 79% 30.36 in 10.0 mi ENE 3.5 mph - N/A   Scattered Clouds
1:51 AM 36.0 °F 33.3 °F 30.0 °F 79% 30.34 in 10.0 mi ENE 3.5 mph - N/A   Scattered Clouds
2:51 AM 37.0 °F 32.4 °F 32.0 °F 82% 30.32 in 10.0 mi NE 5.8 mph - N/A   Overcast
3:10 AM 37.4 °F 33.8 °F 32.0 °F 81% 30.30 in 10.0 mi ENE 4.6 mph - N/A   Overcast
3:51 AM 37.0 °F 32.4 °F 32.0 °F 82% 30.29 in 10.0 mi ENE 5.8 mph - N/A   Mostly Cloudy
4:51 AM 36.0 °F 32.1 °F 30.9 °F 82% 30.29 in 10.0 mi East 4.6 mph - N/A   Scattered Clouds
5:51 AM 35.1 °F 32.2 °F 30.9 °F 85% 30.29 in 10.0 mi ESE 3.5 mph - N/A   Partly Cloudy
6:25 AM 35.6 °F 32.8 °F 30.2 °F 81% 30.28 in 10.0 mi ESE 3.5 mph - N/A   Mostly Cloudy
6:51 AM 36.0 °F 33.3 °F 32.0 °F 86% 30.28 in 10.0 mi ESE 3.5 mph - N/A   Overcast
7:51 AM 37.9 °F 33.5 °F 32.0 °F 79% 30.30 in 10.0 mi SSE 5.8 mph - N/A   Overcast
8:51 AM 39.0 °F 34.8 °F 33.1 °F 79% 30.29 in 10.0 mi SSE 5.8 mph - N/A   Overcast
9:51 AM 39.9 °F 37.8 °F 33.1 °F 77% 30.28 in 10.0 mi SE 3.5 mph - N/A   Overcast
10:51 AM 39.9 °F 35.1 °F 34.0 °F 79% 30.26 in 10.0 mi South 6.9 mph - 0.00 in Rain Light Rain
11:51 AM 41.0 °F 36.4 °F 35.1 °F 79% 30.25 in 10.0 mi SSE 6.9 mph - 0.00 in   Overcast
12:51 PM 42.1 °F 37.1 °F 35.1 °F 76% 30.21 in 10.0 mi SSE 8.1 mph - N/A   Overcast
1:02 PM 42.8 °F 38.0 °F 35.6 °F 76% 30.20 in 10.0 mi South 8.1 mph - N/A   Overcast
1:31 PM 42.8 °F 38.6 °F 35.6 °F 76% 30.19 in 10.0 mi SSE 6.9 mph - N/A   Overcast
1:51 PM 42.1 °F 37.1 °F 36.0 °F 79% 30.18 in 10.0 mi SSE 8.1 mph - N/A   Overcast
2:51 PM 42.1 °F 37.7 °F 37.0 °F 82% 30.15 in 10.0 mi SSE 6.9 mph - 0.00 in Rain Light Rain
3:51 PM 42.1 °F 37.1 °F 37.0 °F 82% 30.14 in 10.0 mi South 8.1 mph - 0.00 in   Overcast
4:23 PM 42.8 °F 40.1 °F 37.4 °F 81% 30.14 in 10.0 mi SSE 4.6 mph - N/A   Overcast
4:51 PM 42.1 °F 38.4 °F 37.9 °F 85% 30.13 in 10.0 mi SSE 5.8 mph - N/A   Overcast
5:05 PM 42.8 °F 38.6 °F 37.4 °F 81% 30.13 in 10.0 mi SE 6.9 mph - N/A   Overcast
5:49 PM 42.8 °F 39.3 °F 37.4 °F 81% 30.12 in 10.0 mi SSE 5.8 mph - N/A   Overcast
5:51 PM 43.0 °F 39.5 °F 37.9 °F 82% 30.13 in 10.0 mi SE 5.8 mph - N/A   Overcast
6:39 PM 42.8 °F 39.3 °F 37.4 °F 81% 30.13 in 10.0 mi SSE 5.8 mph - N/A   Overcast
6:51 PM 42.1 °F 38.4 °F 37.9 °F 85% 30.13 in 10.0 mi SSE 5.8 mph - N/A   Overcast
7:32 PM 42.8 °F - 39.2 °F 87% 30.14 in 10.0 mi Calm Calm - N/A   Overcast
7:51 PM 43.0 °F 41.3 °F 37.9 °F 82% 30.14 in 10.0 mi SSW 3.5 mph - N/A   Overcast
8:51 PM 43.0 °F 41.3 °F 39.0 °F 86% 30.14 in 10.0 mi South 3.5 mph - N/A   Overcast
9:47 PM 41.0 °F - 37.4 °F 87% 30.15 in 10.0 mi Calm Calm - N/A   Mostly Cloudy
9:51 PM 41.0 °F - 37.9 °F 89% 30.14 in 10.0 mi Calm Calm - N/A   Mostly Cloudy
10:31 PM 42.8 °F 41.1 °F 39.2 °F 87% 30.14 in 10.0 mi SW 3.5 mph - N/A   Overcast
10:51 PM 43.0 °F - 39.0 °F 86% 30.15 in 10.0 mi Calm Calm - N/A   Overcast
11:04 PM 42.8 °F - 39.2 °F 87% 30.15 in 10.0 mi Calm Calm - N/A   Mostly Cloudy
11:13 PM 42.8 °F - 37.4 °F 81% 30.15 in 10.0 mi Calm Calm - N/A   Partly Cloudy
11:51 PM 43.0 °F 41.3 °F 39.9 °F 89% 30.16 in 9.0 mi WNW 3.5 mph - N/A   Clear